Location: Unspecified
(0.0000°N, 0.0000°E)
Time: 06:47:52
(UTC+00:00)

Envisat - Pass Details

Date: 30 May 2019
Orbit: 764 x 766 km, 98.1° (Epoch: 15 September)

Event Time Altitude Azimuth Distance (km) Brightness Sun altitude
Rises 19:04:00 0° 174° (S) 3,229 6.0 -15.4°
Reaches altitude 10° 19:06:19 10° 177° (S) 2,301 5.2 -15.9°
Maximum altitude 19:11:20 64° 258° (WSW) 844 3.4 -17.1°
Drops below altitude 10° 19:16:20 10° 339° (NNW) 2,290 6.1 -18.2°
Sets 19:18:38 0° 342° (NNW) 3,213 6.8 -18.8°
